< < Back
Terminal Aerodrome Forecast


Current Version              Previous Versions:   1  2  3  4  5  6  7  8  9  

Terminal Aerodrome Forecast

174
FTUS44 KHUN 071120
TAFHSV
TAF
KHSV 071120Z 0712/0812 00000KT P6SM FEW250
     FM071700 27008KT P6SM SCT250
     FM080100 23010KT P6SM BKN150
     FM080900 23005KT P6SM VCSH BKN050=

Latest METAR

363
SAUS80 KWBC 081400
MTRHSV
METAR KHSV 081353Z 28009KT 10SM FEW090 08/M02 A2984 RMK AO2 SLP104
T00781022


USA.gov is the U.S. government's official web portal to all federal, state and local government web resources and services.